EW1297 Weather Reports


Display with metric or nautical units.
time (UTC)temp
F
wind
direction
speed
MPH
gust
MPH
rain 1hr
in
rain 24hr
in
rain mn
in
humidity
%
barometer
mb
20260504150435 67 135 1.0 3.0 0.00 0.00 0.00 40 1013.1
20260504140416 62 68 1.0 3.0 0.00 0.00 0.00 46 1013.5
20260504130415 58 0.0 0.0 0.00 0.00 0.00 54 1014.0
20260504110415 48 0.0 0.0 0.00 0.00 0.00 64 1014.3
20260504100415 45 0.0 0.0 0.00 0.00 0.00 65 1014.1
20260504081417 46 0.0 0.0 0.00 0.00 0.00 64 1013.8
20260504080417 45 0.0 0.0 0.00 0.00 0.00 64 1013.8
20260504045917 46 0.0 0.0 0.00 0.00 0.00 61 1013.2
20260504044917 46 0.0 0.0 0.00 0.00 0.00 62 1013.2
20260504043917 46 0.0 0.0 0.00 0.00 0.00 63 1013.2
20260504042917 45 0.0 0.0 0.00 0.00 0.00 62 1013.0
20260504041937 46 0.0 0.0 0.00 0.00 0.00 62 1012.8
20260504040917 46 0.0 0.0 0.00 0.00 0.00 62 1012.8
20260504035917 46 0.0 0.0 0.00 0.00 0.00 61 1012.8
20260504034917 46 0.0 0.0 0.00 0.00 0.00 61 1012.8
20260504033917 46 0.0 0.0 0.00 0.00 0.00 60 1012.7
20260504032917 46 0.0 0.0 0.00 0.00 0.00 59 1012.8
20260504031917 46 0.0 0.0 0.00 0.00 0.00 59 1012.7
20260504030917 46 0.0 0.0 0.00 0.00 0.00 59 1012.6
20260504025917 46 0.0 0.0 0.00 0.00 0.00 59 1012.6
20260504024917 46 0.0 0.0 0.00 0.00 0.00 59 1012.6
20260504023917 46 0.0 0.0 0.00 0.00 0.00 59 1012.7
20260504022917 46 0.0 0.0 0.00 0.00 0.00 59 1012.6
20260504021916 46 0.0 0.0 0.00 0.00 0.00 57 1012.7
20260504020917 47 0.0 0.0 0.00 0.00 0.00 57 1012.6
20260504015917 47 0.0 0.0 0.00 0.00 0.00 56 1012.7
20260504014917 48 0.0 0.0 0.00 0.00 0.00 54 1012.6
20260504013916 48 0.0 0.0 0.00 0.00 0.00 53 1012.4
20260504012917 48 0.0 0.0 0.00 0.00 0.00 52 1012.3
20260504011917 49 0.0 0.0 0.00 0.00 0.00 51 1012.3
20260504010917 50 0.0 0.0 0.00 0.00 0.00 49 1012.1
20260504005937 50 0.0 0.0 0.00 0.00 0.00 47 1012.0
20260504004916 51 0.0 0.0 0.00 0.00 0.00 45 1011.9
20260504003916 52 0.0 0.0 0.00 0.00 0.00 45 1011.8
20260504002956 52 0.0 0.0 0.00 0.00 0.00 44 1011.7
20260504001917 53 0.0 0.0 0.00 0.00 0.00 43 1011.6
20260504000937 53 0.0 0.0 0.00 0.00 0.00 41 1011.3
20260503235916 54 0.0 0.0 0.00 0.00 0.00 41 1011.2
20260503234917 54 0.0 0.0 0.00 0.00 0.00 40 1011.1
20260503233916 54 0.0 0.0 0.00 0.00 0.00 40 1011.0
20260503232917 55 0.0 0.0 0.00 0.00 0.00 38 1010.9
20260503231916 55 0.0 0.0 0.00 0.00 0.00 40 1010.8
20260503230917 55 0.0 0.0 0.00 0.00 0.00 38 1010.8
20260503225917 56 0.0 0.0 0.00 0.00 0.00 41 1010.6
20260503224916 56 0.0 0.0 0.00 0.00 0.00 37 1010.5
20260503223916 56 0.0 0.0 0.00 0.00 0.00 37 1010.6
20260503222937 57 0.0 1.0 0.00 0.00 0.00 36 1010.7
20260503221917 57 0.0 0.0 0.00 0.00 0.00 36 1010.6
20260503220916 57 135 1.0 4.0 0.00 0.00 0.00 34 1010.5
20260503215916 57 0.0 0.0 0.00 0.00 0.00 34 1010.6
20260503214916 57 0.0 0.0 0.00 0.00 0.00 33 1010.7
20260503213936 58 0.0 1.0 0.00 0.00 0.00 35 1010.6
20260503212936 58 45 1.0 3.0 0.00 0.00 0.00 34 1010.5
20260503211916 58 0.0 1.0 0.00 0.00 0.00 31 1010.6
20260503210916 58 0.0 0.0 0.00 0.00 0.00 32 1010.5
20260503205936 58 0.0 1.0 0.00 0.00 0.00 32 1010.5
20260503204916 59 0.0 0.0 0.00 0.00 0.00 31 1010.4
20260503203916 59 90 2.0 4.0 0.00 0.00 0.00 33 1010.6
20260503202917 60 68 2.0 4.0 0.00 0.00 0.00 30 1010.5
20260503201956 60 135 1.0 6.0 0.00 0.00 0.00 33 1010.7
20260503200916 59 0.0 2.0 0.00 0.00 0.00 32 1010.8
20260503195916 59 0.0 2.0 0.00 0.00 0.00 32 1010.8
20260503194917 59 0.0 0.0 0.00 0.00 0.00 33 1010.8
20260503193917 60 23 2.0 5.0 0.00 0.00 0.00 34 1011.0
20260503192916 59 0.0 1.0 0.00 0.00 0.00 34 1011.0
20260503191916 59 113 1.0 2.0 0.00 0.00 0.00 34 1011.1
20260503190916 59 0.0 2.0 0.00 0.00 0.00 35 1011.3
20260503185936 59 158 1.0 3.0 0.00 0.00 0.00 33 1011.2
20260503184916 58 135 1.0 5.0 0.00 0.00 0.00 36 1011.5
20260503183916 58 270 1.0 3.0 0.00 0.00 0.00 36 1011.5
20260503182936 56 45 1.0 3.0 0.00 0.00 0.00 39 1011.5
20260503181916 56 68 1.0 2.0 0.00 0.00 0.00 38 1011.6
20260503180916 56 0.0 1.0 0.00 0.00 0.00 39 1011.5
20260503175916 56 0.0 0.0 0.00 0.00 0.00 39 1011.6
20260503174916 57 68 2.0 5.0 0.00 0.00 0.00 40 1011.8
20260503173916 56 90 1.0 4.0 0.00 0.00 0.00 42 1011.9
20260503172916 56 68 2.0 6.0 0.00 0.00 0.00 39 1012.0
20260503171916 55 23 1.0 4.0 0.00 0.00 0.00 42 1011.9
20260503170916 55 0.0 1.0 0.00 0.00 0.00 41 1012.1